[[{"header":{"parameterUnit":"m.s-1","parameterCategory":1,"la1":30.2991,"la2":30.254,"lo1":-89.0895,"lo2":-89.0444,"dy":0.0017,"dx":0.0017,"nx":28,"ny":28,"refTime":"2025-09-18T21:00:00:Z","depth":0,"parameterNumber":2,"parameterNumberName":"U-component_of_WINDS"},"data":[0,0,0,0,0,0,0,0,0,0,0,0,0,0,0,0,0,0,0,0,0,0,0,0,0,0,0,0,0,0,0,0,0,0,0,0,0,0,0,0,0,0,0,0,0,0,0,0,0,0,0,0,0,0,0,0,0,0,-1.4909,-1.4908,0,-1.4838,-1.4837,-1.4836,-1.4763,-1.4761,-1.476,-1.476,-1.4686,-1.4685,-1.4684,0,0,0,0,0,0,0,0,0,0,0,0,0,-1.4984,-1.4983,-1.4909,-1.4908,-1.4907,-1.4838,-1.4837,-1.4836,-1.4763,-1.4761,-1.476,-1.4759,-1.4687,-1.4685,-1.4684,0,0,0,0,0,0,0,0,0,0,0,0,0,-1.4936,-1.4983,-1.4909,-1.4863,-1.4858,-1.4838,-1.4837,-1.4836,-1.4763,-1.4761,-1.476,-1.4759,-1.4687,-1.4686,-1.4684,-1.4705,0,0,-1.4679,-1.4679,0,0,0,0,0,0,0,0,-1.4939,-1.4934,-1.487,-1.4866,-1.486,-1.4807,-1.4836,-1.4792,-1.4763,-1.4799,-1.476,-1.4758,-1.4728,-1.4723,-1.4713,-1.4701,-1.4698,-1.4679,-1.4678,-1.4678,-1.4677,0,0,0,0,0,0,0,-1.4943,-1.4936,-1.4881,-1.487,-1.4863,-1.4846,-1.4837,-1.4828,-1.4773,-1.4796,-1.479,-1.4783,-1.4725,-1.4714,-1.471,-1.4697,-1.4679,-1.4678,-1.4677,-1.4676,-1.4703,-1.4704,0,0,0,0,0,0,-1.4953,-1.494,-1.4883,-1.4879,-1.4897,-1.4846,-1.4836,-1.4826,-1.4773,-1.4763,-1.4784,-1.478,-1.4718,-1.4712,-1.4708,-1.473,-1.4678,-1.4676,-1.4675,-1.4701,-1.4703,-1.4705,0,0,0,0,0,0,-1.4955,-1.4949,-1.4886,-1.4908,-1.4898,-1.4846,-1.4835,-1.4825,-1.4815,-1.4764,-1.4754,-1.4783,-1.4716,-1.471,-1.4707,-1.4726,-1.4676,-1.4674,-1.4699,-1.4702,-1.4704,-1.4774,0,0,0,0,0,0,-1.4957,-1.495,-1.4956,-1.4908,-1.4898,-1.4886,-1.4836,-1.4825,-1.4812,-1.4806,-1.4761,-1.4752,-1.4715,-1.4709,-1.4705,-1.4723,-1.4673,-1.4697,-1.47,-1.4703,-1.477,-1.4779,-1.4786,0,0,0,0,0,-1.496,-1.4978,-1.4957,-1.495,-1.4905,-1.4887,-1.4881,-1.4838,-1.4814,-1.4821,-1.4789,-1.4753,-1.4725,-1.471,-1.4704,-1.4722,-1.4696,-1.4699,-1.4703,-1.4766,-1.4777,-1.4786,0,0,0,0,0,0,-1.5029,-1.4971,-1.4947,-1.495,-1.4924,-1.4875,-1.4881,-1.485,-1.4831,-1.4825,-1.4773,-1.4764,-1.4767,-1.4744,-1.4728,-1.4741,-1.4706,-1.4708,-1.4756,-1.4765,-1.4773,-1.4778,-1.4672,0,0,0,0,0,-1.5045,-1.5035,-1.4985,-1.4992,-1.4981,-1.4934,-1.4925,-1.4894,-1.4865,-1.4854,-1.4821,-1.4795,-1.4781,-1.4772,-1.4755,-1.4767,-1.4757,-1.4777,-1.4785,-1.4792,-1.4795,-1.4801,-1.481,-1.4717,-1.4716,-1.4716,0,0,-1.5076,-1.5043,-1.504,-1.5005,-1.4982,-1.4974,-1.4925,-1.4918,-1.4911,-1.4853,-1.4848,-1.4824,-1.4791,-1.4796,-1.4797,-1.4777,-1.4819,-1.4797,-1.4803,-1.4801,-1.4806,-1.4815,-1.4823,-1.4719,-1.4719,-1.4718,0,0,-1.513,-1.5104,-1.5108,-1.5086,-1.5052,-1.5021,-1.5023,-1.4979,-1.496,-1.4955,-1.4912,-1.4904,-1.488,-1.4859,-1.4845,-1.4896,-1.4863,-1.4892,-1.4934,-1.4942,-1.4949,-1.4955,-1.4974,-1.4981,-1.4895,-1.4895,-1.4896,0,-1.5173,-1.5159,-1.5114,-1.511,-1.5097,-1.5045,-1.505,-1.5031,-1.4993,-1.4986,-1.4965,-1.4936,-1.491,-1.491,-1.4923,-1.4913,-1.4914,-1.4896,-1.4951,-1.4957,-1.4962,-1.498,-1.4987,-1.4899,-1.4899,-1.4898,-1.4898,0,-1.5215,-1.5206,-1.5214,-1.518,-1.5168,-1.5168,-1.5125,-1.5118,-1.509,-1.5062,-1.5059,-1.5027,-1.5004,-1.5003,-1.4974,-1.5,-1.4989,-1.4961,-1.4924,-1.4976,-1.4992,-1.4998,-1.4905,-1.4903,-1.4902,-1.4901,0,0,-1.5307,-1.5251,-1.5254,-1.5239,-1.5199,-1.5192,-1.5191,-1.517,-1.5166,-1.5143,-1.5142,-1.5124,-1.5099,-1.5083,-1.5053,-1.5059,-1.5103,-1.503,-1.5029,-1.5045,-1.5131,-1.5153,-1.5161,-1.5082,-1.5083,-1.5084,-1.5134,0,-1.5354,-1.5349,-1.5311,-1.5317,-1.531,-1.5262,-1.5262,-1.5238,-1.5213,-1.5204,-1.5176,-1.5165,-1.5131,-1.5122,-1.5126,-1.5097,-1.512,-1.5093,-1.5081,-1.5081,-1.509,-1.5169,-1.5191,-1.524,-1.514,-1.5141,-1.5142,0,-1.5407,-1.5388,-1.5395,-1.5357,-1.5352,-1.5353,-1.5332,-1.5323,-1.5296,-1.5278,-1.5263,-1.5229,-1.5228,-1.5194,-1.5192,-1.5175,-1.5168,-1.5154,-1.5154,-1.5151,-1.5114,-1.5168,-1.5254,-1.5262,-1.5151,-1.515,-1.5149,0,-1.5474,-1.5451,-1.5452,-1.5441,-1.5397,-1.5399,-1.538,-1.5352,-1.5343,-1.5325,-1.5318,-1.5301,-1.5291,-1.5278,-1.5242,-1.522,-1.5245,-1.5207,-1.523,-1.5231,-1.5236,-1.5236,-1.5323,-1.5232,-1.5232,-1.5232,-1.5232,0,-1.553,-1.5536,-1.5482,-1.5483,-1.5489,-1.5446,-1.5453,-1.5431,-1.5407,-1.5403,-1.5362,-1.5359,-1.5311,-1.5304,-1.5276,-1.5279,-1.5275,-1.5261,-1.5253,-1.5264,-1.5266,-1.5258,-1.5254,-1.5234,-1.5234,-1.5233,-1.5233,0,-1.5605,-1.5569,-1.5568,-1.5528,-1.5518,-1.5524,-1.549,-1.549,-1.5464,-1.546,-1.5457,-1.5416,-1.5405,-1.5368,-1.5348,-1.5329,-1.5343,-1.5327,-1.5352,-1.5347,-1.5371,-1.537,-1.5456,-1.5465,-1.537,-1.5371,-1.5371,0,-1.5643,-1.5647,-1.5608,-1.5603,-1.5587,-1.5579,-1.557,-1.5529,-1.5521,-1.5493,-1.5497,-1.5484,-1.547,-1.5457,-1.5426,-1.5411,-1.5396,-1.5427,-1.5393,-1.5405,-1.5397,-1.5397,-1.5398,-1.5434,-1.5435,-1.5436,-1.5437,0,-1.5714,-1.5697,-1.5685,-1.5669,-1.5659,-1.5644,-1.5626,-1.5624,-1.5579,-1.5573,-1.5562,-1.5553,-1.5534,-1.5522,-1.5503,-1.5485,-1.5454,-1.5449,-1.5453,-1.5464,-1.5478,-1.5472,-1.5372,-1.5446,-1.5445,-1.5445,-1.5444,-1.5444,-1.5772,-1.5774,-1.5748,-1.5737,-1.572,-1.5705,-1.5703,-1.5678,-1.5669,-1.565,-1.5627,-1.562,-1.5596,-1.5568,-1.5553,-1.5548,-1.553,-1.5537,-1.5538,-1.5541,-1.5547,-1.548,-1.5544,-1.5544,-1.5544,-1.5543,-1.5543,0,-1.5842,-1.5823,-1.5814,-1.5791,-1.5783,-1.5756,-1.5736,-1.5731,-1.5726,-1.5706,-1.5695,-1.5685,-1.5674,-1.5643,-1.5629,-1.5631,-1.5617,-1.5629,-1.5628,-1.5625,-1.5562,-1.556,-1.5641,-1.5641,-1.5641,-1.5641,-1.5641,-1.5641,-1.5877,-1.5879,-1.586,-1.5855,-1.5836,-1.5829,-1.582,-1.5807,-1.5791,-1.5782,-1.5773,-1.5753,-1.573,-1.5715,-1.5704,-1.5695,-1.5693,-1.571,-1.5697,-1.5638,-1.5629,-1.562,-1.5618,-1.5709,-1.5709,-1.5759,-1.576,-1.576]},{"header":{"parameterUnit":"m.s-1","parameterCategory":1,"la1":30.2991,"la2":30.254,"lo1":-89.0895,"lo2":-89.0444,"dy":0.0017,"dx":0.0017,"nx":28,"ny":28,"refTime":"2025-09-18T21:00:00:Z","depth":0,"parameterNumber":3,"parameterNumberName":"V-component_of_WINDS"},"data":[0,0,0,0,0,0,0,0,0,0,0,0,0,0,0,0,0,0,0,0,0,0,0,0,0,0,0,0,0,0,0,0,0,0,0,0,0,0,0,0,0,0,0,0,0,0,0,0,0,0,0,0,0,0,0,0,0,0,3.0945,3.0945,0,3.0947,3.0947,3.0947,3.1006,3.1007,3.1009,3.101,3.1006,3.1004,3.1003,0,0,0,0,0,0,0,0,0,0,0,0,0,3.0987,3.0986,3.0945,3.0945,3.0945,3.0947,3.0947,3.0947,3.1005,3.1007,3.1009,3.1011,3.1006,3.1004,3.1002,0,0,0,0,0,0,0,0,0,0,0,0,0,3.0977,3.0986,3.0945,3.0975,3.0978,3.0947,3.0947,3.0947,3.1005,3.1007,3.101,3.1012,3.1007,3.1004,3.1002,3.0942,0,0,3.0995,3.0994,0,0,0,0,0,0,0,0,3.0977,3.0975,3.097,3.0973,3.0976,3.0979,3.096,3.0945,3.1005,3.0994,3.101,3.1013,3.0994,3.0993,3.0988,3.0941,3.0941,3.0995,3.0993,3.0992,3.0992,0,0,0,0,0,0,0,3.0978,3.0975,3.0946,3.097,3.0974,3.0986,3.0987,3.0958,3.0981,3.0995,3.1,3.1,3.0996,3.099,3.0989,3.0941,3.0995,3.0993,3.0991,3.099,3.0845,3.0842,0,0,0,0,0,0,3.0975,3.0976,3.0946,3.0946,3.0982,3.0984,3.0985,3.0975,3.0982,3.0985,3.0998,3.1002,3.0993,3.0991,3.0989,3.0918,3.0992,3.099,3.0989,3.0847,3.0844,3.0841,0,0,0,0,0,0,3.0976,3.0972,3.0946,3.0962,3.096,3.0981,3.0969,3.0974,3.0968,3.0983,3.0987,3.0988,3.0995,3.0992,3.0953,3.0919,3.0989,3.0987,3.085,3.0846,3.0843,3.0776,0,0,0,0,0,0,3.0977,3.0972,3.095,3.0961,3.0959,3.0912,3.0967,3.0972,3.0965,3.0971,3.0975,3.0978,3.0997,3.0957,3.0951,3.0917,3.0985,3.0853,3.0848,3.0844,3.0782,3.0771,3.0761,0,0,0,0,0,3.0978,3.093,3.0949,3.0945,3.0932,3.091,3.0908,3.0932,3.0962,3.094,3.0949,3.0978,3.0924,3.0952,3.0946,3.0911,3.0855,3.085,3.0844,3.0786,3.0773,3.0762,0,0,0,0,0,0,3.0912,3.0932,3.0953,3.0907,3.0907,3.092,3.0892,3.0917,3.0906,3.0912,3.0941,3.0941,3.0898,3.0901,3.0932,3.0853,3.0895,3.0888,3.0852,3.084,3.083,3.0829,3.0983,0,0,0,0,0,3.0893,3.0875,3.0892,3.085,3.0849,3.087,3.0861,3.0881,3.088,3.0879,3.0886,3.0883,3.0866,3.0853,3.0838,3.0783,3.0784,3.0756,3.0746,3.0737,3.073,3.0701,3.0689,3.0823,3.0823,3.0823,0,0,3.0851,3.086,3.0846,3.0837,3.0839,3.0818,3.087,3.0845,3.0829,3.0875,3.084,3.0844,3.0843,3.0796,3.0775,3.0797,3.0694,3.073,3.0723,3.0721,3.0694,3.0681,3.067,3.0819,3.082,3.0821,0,0,3.0765,3.077,3.0736,3.0737,3.074,3.0755,3.0747,3.0756,3.0762,3.0728,3.0762,3.0743,3.0712,3.0709,3.0704,3.0618,3.0644,3.0613,3.0559,3.053,3.052,3.0511,3.0479,3.0468,3.0606,3.0606,3.0606,0,3.0712,3.0684,3.0714,3.0688,3.0682,3.0726,3.069,3.0689,3.0686,3.068,3.0705,3.0668,3.067,3.0623,3.0603,3.0597,3.0587,3.0611,3.0519,3.051,3.0502,3.0472,3.0461,3.0602,3.0602,3.0603,3.0603,0,3.0619,3.0598,3.057,3.0569,3.056,3.0529,3.0553,3.0541,3.0561,3.0573,3.0537,3.0541,3.0527,3.0518,3.0536,3.0473,3.0487,3.0515,3.0557,3.0485,3.0457,3.0446,3.0596,3.0598,3.0599,3.06,0,0,3.0488,3.0506,3.0495,3.0495,3.0502,3.0486,3.0457,3.0446,3.0434,3.0431,3.0406,3.038,3.0407,3.0401,3.042,3.0395,3.0326,3.0426,3.0426,3.0406,3.0256,3.0234,3.022,3.0344,3.0342,3.034,3.0256,0,3.0405,3.0358,3.0385,3.0333,3.0314,3.0356,3.0331,3.0331,3.0342,3.0326,3.0337,3.0318,3.0355,3.0352,3.0329,3.0339,3.0296,3.0346,3.0319,3.0318,3.0317,3.0206,3.0183,3.0103,3.0246,3.0244,3.0242,0,3.03,3.0295,3.0242,3.0254,3.0247,3.0224,3.0216,3.0201,3.0203,3.0212,3.0206,3.0231,3.0202,3.0246,3.0205,3.0238,3.0229,3.0232,3.023,3.0227,3.0275,3.0199,3.0078,3.0066,3.0226,3.0227,3.0229,0,3.0209,3.0189,3.0155,3.0154,3.0167,3.015,3.0154,3.0158,3.015,3.0143,3.0138,3.0126,3.012,3.011,3.013,3.016,3.0086,3.0132,3.0092,3.0091,3.0073,3.0073,2.9947,3.0069,3.0069,3.0069,3.007,0,3.0112,3.0078,3.0115,3.0093,3.0056,3.0087,3.0049,3.0057,3.0061,3.0041,3.0076,3.0056,3.0085,3.0068,3.0084,3.0047,3.0044,3.005,3.0054,3.0046,3.0045,3.0039,3.0044,3.0066,3.0067,3.0067,3.0068,0,3.0004,3.0028,2.9993,3.0009,3.0013,2.9984,2.9997,2.9977,2.9991,2.9965,2.9961,2.9982,2.9963,2.9984,2.9966,2.9977,2.9927,2.994,2.9927,2.993,2.9889,2.9892,2.9754,2.9737,2.987,2.9869,2.9868,0,2.994,2.9915,2.9929,2.9919,2.9922,2.9906,2.9899,2.9928,2.9919,2.992,2.9899,2.9884,2.9874,2.9842,2.9854,2.9841,2.9853,2.9805,2.9851,2.9843,2.9851,2.9852,2.9849,2.9795,2.9794,2.9792,2.9791,0,2.9823,2.9836,2.9826,2.9819,2.981,2.9806,2.9804,2.9793,2.9824,2.9812,2.9795,2.9786,2.977,2.9754,2.9744,2.9747,2.9773,2.9777,2.9767,2.9758,2.9751,2.9753,2.9901,2.978,2.9781,2.9782,2.9782,2.9783,2.9734,2.9714,2.9721,2.9708,2.9711,2.9708,2.9691,2.9704,2.9691,2.9681,2.9699,2.9677,2.9679,2.967,2.9669,2.9651,2.9671,2.9656,2.9653,2.9648,2.9642,2.9755,2.9649,2.965,2.965,2.965,2.9651,0,2.9618,2.9626,2.9614,2.9611,2.96,2.963,2.9629,2.9618,2.9599,2.96,2.959,2.957,2.9555,2.9567,2.9554,2.9537,2.9549,2.9533,2.9533,2.9533,2.9625,2.9635,2.9524,2.9524,2.9524,2.9524,2.9524,2.9524,2.9557,2.9524,2.9539,2.9507,2.9515,2.9495,2.9492,2.949,2.9491,2.9468,2.9457,2.9466,2.9471,2.9459,2.9446,2.945,2.9443,2.9422,2.943,2.9515,2.9527,2.9539,2.9548,2.9421,2.942,2.934,2.9339,2.9339]}]]